sat.trackr.live / text

‹ back to catalog

STARLINK-33777

NORAD 63843 · 2025-093H

PAYLOAD ACTIVE UNKNOWN

§ Identity

Operator
Country
US
Launch date
2025-05-07
Launch site
AFETR
Launch vehicle
Mass (kg)
RCS (m²)

Purposes: comms

External: N2YO · Heavens-Above · Gunter

§ Orbital elements

Epoch: 2026-05-24T23:38:47.607072Z

Period
94.26 min
Inclination
43.0034°
Eccentricity
0.0001526
Mean motion
15.27608587 rev/d
Perigee alt
481.9 km
Apogee alt
484.0 km
Semi-major
6,861.1 km
B*
9.9828e-4
RAAN
6.7598°
Arg perigee
277.3441°
Mean anomaly
82.7237°
Rev number
5,964

§ Raw data

STARLINK-337771 63843U 25093H   26144.98527323  .00027334  00000+0  99828-3 0  99962 63843  43.0034   6.7598 0001526 277.3441  82.7237 15.27608587 59649

JSON: /api/v1/satellites/63843 · /tle

For live sub-satellite position, see the globe view (requires WebGL).

§ Visibility from observer

Set your observer location to see the next 7 days of passes ≥ 10°. The values pass through the URL so the page stays shareable.

No JS? Fill the form by hand. The geolocation button needs JavaScript.